| time (UTC) | temp F | wind direction | speed MPH | gust MPH | rain 1hr in | rain 24hr in | rain mn in | humidity % | barometer mb |
| 20260505200056 | 52 | 66 | 3.0 | 12.0 | 0.00 | 0.00 | 0.00 | 50 | 1013.2 |
| 20260505194555 | 52 | 71 | 4.0 | 10.0 | 0.00 | 0.00 | 0.00 | 50 | 1013.3 |
| 20260505193056 | 52 | 54 | 4.0 | 15.0 | 0.00 | 0.00 | 0.00 | 49 | 1013.2 |
| 20260505191608 | 53 | 59 | 2.0 | 10.0 | 0.00 | 0.00 | 0.00 | 48 | 1013.4 |
| 20260505190105 | 53 | 67 | 5.0 | 14.0 | 0.00 | 0.00 | 0.00 | 48 | 1013.4 |
| 20260505184558 | 53 | 59 | 3.0 | 12.0 | 0.00 | 0.00 | 0.00 | 48 | 1013.3 |
| 20260505183131 | 53 | 61 | 3.0 | 10.0 | 0.00 | 0.00 | 0.00 | 47 | 1013.5 |
| 20260505181600 | 53 | 93 | 3.0 | 10.0 | 0.00 | 0.00 | 0.00 | 47 | 1013.6 |
| 20260505180057 | 53 | 59 | 5.0 | 18.0 | 0.00 | 0.00 | 0.00 | 47 | 1013.5 |
| 20260505174600 | 52 | 45 | 7.0 | 18.0 | 0.00 | 0.00 | 0.00 | 48 | 1013.3 |
| 20260505173101 | 52 | 76 | 6.0 | 15.0 | 0.00 | 0.00 | 0.00 | 47 | 1013.5 |
| 20260505171603 | 52 | 47 | 5.0 | 12.0 | 0.00 | 0.00 | 0.00 | 49 | 1013.6 |
| 20260505170058 | 52 | 50 | 5.0 | 18.0 | 0.00 | 0.00 | 0.00 | 47 | 1013.9 |
| 20260505164553 | 52 | 73 | 4.0 | 12.0 | 0.00 | 0.00 | 0.00 | 48 | 1013.9 |
| 20260505163056 | 52 | 34 | 4.0 | 14.0 | 0.00 | 0.00 | 0.00 | 47 | 1013.7 |
| 20260505161616 | 51 | 63 | 5.0 | 16.0 | 0.00 | 0.00 | 0.00 | 49 | 1013.6 |
| 20260505153056 | 50 | 58 | 3.0 | 11.0 | 0.00 | 0.00 | 0.00 | 51 | 1013.7 |
| 20260505151614 | 50 | 69 | 5.0 | 13.0 | 0.00 | 0.00 | 0.00 | 52 | 1013.6 |
| 20260505124559 | 47 | 68 | 3.0 | 8.0 | 0.00 | 0.00 | 0.00 | 61 | 1012.1 |
| 20260505123057 | 47 | 22 | 2.0 | 9.0 | 0.00 | 0.00 | 0.00 | 61 | 1011.7 |
| 20260505121559 | 47 | 351 | 1.0 | 12.0 | 0.00 | 0.00 | 0.00 | 59 | 1011.1 |
| 20260505120111 | 48 | 51 | 4.0 | 11.0 | 0.00 | 0.00 | 0.00 | 58 | 1010.2 |
| 20260505114600 | 48 | 43 | 3.0 | 14.0 | 0.00 | 0.00 | 0.00 | 57 | 1010.4 |
| 20260505113056 | 48 | 46 | 3.0 | 14.0 | 0.00 | 0.00 | 0.00 | 56 | 1010.0 |
| 20260505111555 | 48 | 61 | 4.0 | 13.0 | 0.00 | 0.00 | 0.00 | 56 | 1009.9 |
| 20260505101554 | 49 | 50 | 5.0 | 14.0 | 0.00 | 0.00 | 0.00 | 55 | 1008.5 |
| 20260505100055 | 50 | 70 | 4.0 | 14.0 | 0.00 | 0.00 | 0.00 | 55 | 1008.3 |
| 20260505094556 | 50 | 62 | 5.0 | 14.0 | 0.00 | 0.00 | 0.00 | 54 | 1008.7 |
| 20260505093058 | 50 | 66 | 5.0 | 14.0 | 0.00 | 0.00 | 0.00 | 54 | 1008.7 |
| 20260505091601 | 51 | 55 | 5.0 | 11.0 | 0.00 | 0.00 | 0.00 | 54 | 1008.6 |
| 20260505090057 | 51 | 34 | 3.0 | 16.0 | 0.00 | 0.00 | 0.00 | 54 | 1008.7 |
| 20260505084554 | 51 | 67 | 3.0 | 11.0 | 0.00 | 0.00 | 0.00 | 54 | 1008.5 |
| 20260505083058 | 51 | 85 | 3.0 | 13.0 | 0.00 | 0.00 | 0.00 | 53 | 1008.2 |
| 20260505081606 | 51 | 37 | 3.0 | 11.0 | 0.00 | 0.00 | 0.00 | 52 | 1007.9 |
| 20260505080058 | 51 | 23 | 3.0 | 12.0 | 0.00 | 0.00 | 0.00 | 50 | 1007.3 |
| 20260505074602 | 52 | 32 | 5.0 | 14.0 | 0.00 | 0.00 | 0.00 | 48 | 1006.8 |
| 20260505073110 | 53 | 38 | 6.0 | 17.0 | 0.00 | 0.00 | 0.00 | 47 | 1006.3 |
| 20260505071600 | 53 | 54 | 7.0 | 15.0 | 0.00 | 0.00 | 0.00 | 46 | 1005.9 |
| 20260505070055 | 54 | 6 | 8.0 | 23.0 | 0.00 | 0.00 | 0.00 | 44 | 1005.9 |
| 20260505064556 | 55 | 45 | 7.0 | 22.0 | 0.00 | 0.00 | 0.00 | 44 | 1005.8 |
| 20260505063054 | 56 | 43 | 6.0 | 21.0 | 0.00 | 0.00 | 0.00 | 50 | 1005.5 |
| 20260505061559 | 57 | 36 | 6.0 | 16.0 | 0.00 | 0.00 | 0.00 | 47 | 1005.5 |
| 20260505054622 | 58 | 41 | 7.0 | 14.0 | 0.00 | 0.00 | 0.00 | 47 | 1005.3 |
| 20260505053115 | 59 | 41 | 6.0 | 23.0 | 0.00 | 0.00 | 0.00 | 47 | 1005.2 |
| 20260505051601 | 59 | 57 | 7.0 | 15.0 | 0.00 | 0.00 | 0.00 | 49 | 1005.3 |
| 20260505050113 | 60 | 39 | 6.0 | 15.0 | 0.00 | 0.00 | 0.00 | 53 | 1005.2 |
| 20260505041601 | 63 | 6 | 5.0 | 12.0 | 0.00 | 0.00 | 0.00 | 50 | 1004.1 |
| 20260505040057 | 65 | 42 | 5.0 | 18.0 | 0.00 | 0.00 | 0.00 | 44 | 1003.8 |
| 20260505034557 | 67 | 352 | 3.0 | 6.0 | 0.00 | 0.00 | 0.00 | 36 | 1003.8 |
| 20260505033100 | 68 | 70 | 2.0 | 10.0 | 0.00 | 0.00 | 0.00 | 32 | 1003.6 |
| 20260505031610 | 69 | 60 | 5.0 | 11.0 | 0.00 | 0.00 | 0.00 | 32 | 1002.7 |
| 20260505024559 | 71 | 74 | 3.0 | 9.0 | 0.00 | 0.00 | 0.00 | 27 | 1001.9 |
| 20260505023119 | 72 | 74 | 4.0 | 9.0 | 0.00 | 0.00 | 0.00 | 27 | 1001.6 |
| 20260505021558 | 72 | 70 | 5.0 | 11.0 | 0.00 | 0.00 | 0.00 | 25 | 1001.4 |
| 20260505020058 | 74 | 104 | 4.0 | 11.0 | 0.00 | 0.00 | 0.00 | 24 | 1001.3 |
| 20260505014604 | 75 | 68 | 4.0 | 13.0 | 0.00 | 0.00 | 0.00 | 23 | 1001.2 |
| 20260505013109 | 76 | 57 | 4.0 | 11.0 | 0.00 | 0.00 | 0.00 | 22 | 1001.1 |
| 20260505011557 | 77 | 75 | 4.0 | 9.0 | 0.00 | 0.00 | 0.00 | 21 | 1001.0 |
| 20260505004559 | 79 | 70 | 2.0 | 4.0 | 0.00 | 0.00 | 0.00 | 20 | 1000.9 |
| 20260505003057 | 79 | 60 | 1.0 | 4.0 | 0.00 | 0.00 | 0.00 | 20 | 1001.0 |
| 20260505001600 | 80 | 0 | 1.0 | 7.0 | 0.00 | 0.00 | 0.00 | 19 | 1001.1 |
| 20260505000115 | 80 | 0 | 1.0 | 4.0 | 0.00 | 0.00 | 0.00 | 19 | 1001.3 |
| 20260504234558 | 81 | 35 | 1.0 | 5.0 | 0.00 | 0.00 | 0.00 | 19 | 1001.2 |
| 20260504233100 | 81 | 72 | 3.0 | 8.0 | 0.00 | 0.00 | 0.00 | 18 | 1001.3 |
| 20260504231557 | 81 | 55 | 4.0 | 9.0 | 0.00 | 0.00 | 0.00 | 19 | 1001.4 |
| 20260504230106 | 81 | 92 | 4.0 | 10.0 | 0.00 | 0.00 | 0.00 | 19 | 1001.6 |
| 20260504224556 | 81 | 79 | 3.0 | 8.0 | 0.00 | 0.00 | 0.00 | 18 | 1001.9 |
| 20260504223104 | 81 | 50 | 3.0 | 9.0 | 0.00 | 0.00 | 0.00 | 18 | 1001.7 |
| 20260504221603 | 81 | 68 | 3.0 | 9.0 | 0.00 | 0.00 | 0.00 | 17 | 1001.9 |
| 20260504220059 | 81 | 54 | 2.0 | 8.0 | 0.00 | 0.00 | 0.00 | 19 | 1002.0 |
| 20260504214558 | 81 | 73 | 1.0 | 13.0 | 0.00 | 0.00 | 0.00 | 18 | 1002.1 |
| 20260504213105 | 82 | 54 | 2.0 | 8.0 | 0.00 | 0.00 | 0.00 | 17 | 1002.0 |
| 20260504211605 | 81 | 62 | 3.0 | 12.0 | 0.00 | 0.00 | 0.00 | 17 | 1002.2 |
| 20260504210058 | 81 | 40 | 3.0 | 9.0 | 0.00 | 0.00 | 0.00 | 20 | 1002.3 |
| 20260504204601 | 82 | 72 | 6.0 | 12.0 | 0.00 | 0.00 | 0.00 | 20 | 1002.5 |
| 20260504203106 | 84 | 33 | 4.0 | 12.0 | 0.00 | 0.00 | 0.00 | 19 | 1002.2 |
| 20260504201554 | 87 | 337 | 1.0 | 5.0 | 0.00 | 0.00 | 0.00 | 12 | 1002.6 |